Grand Junction, CO

9:32 AM MST on January 18, 2017 (GMT -0700)
Walker

Weather History for KGJT - October, 2012

Change the Weather History Date:

Tuesday, October 9, 2012

  Actual Average Record
Temperature  
Mean Temperature 54 °F 56 °F  
Max Temperature 73 °F 69 °F 83 °F (1996)
Min Temperature 34 °F 43 °F 30 °F (1909)
Degree Days  
Heating Degree Days 11 9  
Month to date heating degree days 70 69  
Since 1 July heating degree days 108 143  
Cooling Degree Days 0 0  
Month to date cooling degree days 1 1  
Year to date cooling degree days 1515 1123  
Growing Degree Days 3 (Base 50)    
Moisture  
Dew Point 18 °F    
Average Humidity 26    
Maximum Humidity 37    
Minimum Humidity 14    
Precipitation  
Precipitation 0.00 in 0.03 in 0.56 in (1897)
Month to date precipitation T 0.33  
Year to date precipitation 3.02 7.37  
Snow  
Snow 0.00 in 0.00 in 0.00 in (2015)
Month to date snowfall 0.0 0.0  
Since 1 July snowfall 0.0 0.0  
Since 1 September snowfall 0.0 0.0  
Snow Depth 0.00 in    
Sea Level Pressure  
Sea Level Pressure 29.95 in    
Wind  
Wind Speed 5 mph (East)    
Max Wind Speed 14 mph    
Max Gust Speed 16 mph    
Visibility 10 miles    
Events      
T = Trace of Precipitation, MM = Missing Value Source: NWS Daily Summary

Daily Weather History Graph

Daily Weather History Graph

Search for Another Location

Airport or City:

Trip Planner

Search our weather history database for the weather conditions in past years. The results will help you decide how hot, cold, wet, or windy it might be!

Date:

Astronomy

Oct. 09, 2012 Rise Set
Actual Time 7:18 AM MDT 6:43 PM MDT
Civil Twilight 6:51 AM MDT 7:10 PM MDT
Nautical Twilight 6:20 AM MDT 7:41 PM MDT
Astronomical Twilight 5:49 AM MDT 8:12 PM MDT
Moon 1:00 AM MDT (10/9) 3:10 PM MDT (10/9)
Length of Visible Light 12h 18m
Length of Day
11h 25m
Last Quarter, 36% of the Moon is Illuminated
Oct 9
Last Quarter
Oct 15
New
Oct 21
First Quarter
Oct 29
Full
Nov 6
Last Quarter

Hourly Weather History & Observations

Time (MDT) Temp. Windchill Dew Point Humidity Pressure Visibility Wind Dir Wind Speed Gust Speed Precip Events Conditions
12:53 AM 44.1 °F 41.5 °F 10.0 °F 25% 29.94 in 10.0 mi SSW 4.6 mph - N/A   Clear
1:53 AM 46.4 °F 41.5 °F 12.2 °F 25% 30.01 in 10.0 mi ESE 10.4 mph - N/A   Clear
2:53 AM 46.0 °F 40.2 °F 12.0 °F 25% 29.91 in 10.0 mi ESE 12.7 mph - N/A   Clear
3:53 AM 41.0 °F - 15.1 °F 35% 29.93 in 10.0 mi Calm Calm - N/A   Clear
4:53 AM 37.9 °F 33.5 °F 10.9 °F 33% 29.94 in 10.0 mi ENE 5.8 mph - N/A   Clear
5:53 AM 39.0 °F 36.8 °F 12.0 °F 33% 29.96 in 10.0 mi ESE 3.5 mph - N/A   Clear
6:53 AM 37.9 °F 35.5 °F 14.0 °F 38% 29.98 in 10.0 mi East 3.5 mph - N/A   Clear
7:53 AM 39.9 °F 33.9 °F 14.0 °F 35% 30.01 in 10.0 mi ENE 9.2 mph - N/A   Clear
8:53 AM 45.0 °F - 18.0 °F 34% 30.03 in 10.0 mi Calm Calm - N/A   Clear
9:53 AM 48.9 °F - 19.9 °F 32% 30.03 in 10.0 mi Calm Calm - N/A   Clear
10:53 AM 57.0 °F - 18.0 °F 22% 30.00 in 10.0 mi Variable 3.5 mph - N/A   Clear
11:53 AM 59.0 °F - 19.9 °F 22% 30.00 in 10.0 mi Calm Calm - N/A   Clear
12:53 PM 64.9 °F - 19.9 °F 18% 29.96 in 10.0 mi Calm Calm - N/A   Clear
1:53 PM 69.1 °F - 18.0 °F 14% 29.91 in 10.0 mi NW 6.9 mph - N/A   Clear
2:53 PM 72.0 °F - 21.0 °F 15% 29.88 in 10.0 mi West 6.9 mph - N/A   Clear
3:53 PM 72.0 °F - 19.9 °F 14% 29.88 in 10.0 mi Variable 5.8 mph - N/A   Clear
4:53 PM 72.0 °F - 21.9 °F 15% 29.88 in 10.0 mi West 4.6 mph - N/A   Clear
5:53 PM 72.0 °F - 23.0 °F 16% 29.88 in 10.0 mi Calm Calm - N/A   Clear
6:53 PM 66.0 °F - 27.0 °F 23% 29.91 in 10.0 mi Calm Calm - N/A   Clear
7:53 PM 57.9 °F - 18.0 °F 21% 29.94 in 10.0 mi ENE 6.9 mph - N/A   Clear
8:53 PM 55.9 °F - 18.0 °F 23% 29.95 in 10.0 mi ENE 5.8 mph - N/A   Clear
9:53 PM 55.0 °F - 19.9 °F 25% 29.96 in 10.0 mi East 4.6 mph - N/A   Clear
10:53 PM 55.9 °F - 21.0 °F 26% 29.94 in 10.0 mi East 6.9 mph - N/A   Clear
11:53 PM 52.0 °F - 21.0 °F 30% 29.96 in 10.0 mi ESE 8.1 mph - N/A   Clear